Weather History for Fort Leonard Wood, MO

Change the Weather History Date:

Wednesday, October 17, 2012

  Actual Average Record
Temperature  
Mean Temperature 60 °F -  
Max Temperature 69 °F 66 °F 84 °F (2005)
Min Temperature 47 °F 48 °F 30 °F (2001)
Degree Days  
Heating Degree Days 6    
Growing Degree Days 10 (Base 50)    
Moisture  
Dew Point 57 °F    
Average Humidity 90    
Maximum Humidity 100    
Minimum Humidity 73    
Precipitation  
Precipitation 0.46 in - - ()
Sea Level Pressure  
Sea Level Pressure 29.50 in    
Wind  
Wind Speed 10 mph (SW)    
Max Wind Speed 23 mph    
Max Gust Speed 38 mph    
Visibility 9 miles    
Events Rain , Thunderstorm    
Averages and records for this station are not official NWS values.
T = Trace of Precipitation, MM = Missing Value Source: NWS Daily Summary

Daily Weather History Graph

Daily Weather History Graph

Search for Another Location

Airport:

Trip Planner

Search our weather history database for the weather conditions in past years. The results will help you decide how hot, cold, wet, or windy it might be!

Date:

Astronomy

Oct. 17, 2012 Rise Set
Actual Time 7:19 AM CDT 6:27 PM CDT
Civil Twilight 6:52 AM CDT 6:54 PM CDT
Nautical Twilight 6:22 AM CDT 7:24 PM CDT
Astronomical Twilight 5:51 AM CDT 7:54 PM CDT
Moon 9:50 AM CDT (10/17) 8:07 PM CDT (10/17)
Length of Visible Light 12h 01m
Length of Day
11h 08m
Waxing Crescent, 7% of the Moon is Illuminated
Oct 17
Waxing Crescent
Oct 21
First Quarter
Oct 29
Full
Nov 6
Last Quarter
Nov 13
New

Hourly Weather History & Observations

Time (CDT) Temp. Dew Point Humidity Pressure Visibility Wind Dir Wind Speed Gust Speed Precip Events Conditions
5:55 AM 56.1 °F 53.4 °F 91% 29.53 in 10.0 mi SSE 9.2 mph - N/A   Clear
6:55 AM 55.9 °F 54.3 °F 94% 29.52 in 10.0 mi SSE 10.4 mph - N/A   Clear
7:55 AM 57.6 °F 55.6 °F 93% 29.52 in 10.0 mi SSE 10.4 mph - N/A   Mostly Cloudy
8:46 AM 59.0 °F 57.2 °F 94% 29.53 in 10.0 mi South 8.1 mph - N/A   Overcast
8:55 AM 59.7 °F 57.2 °F 91% 29.53 in 10.0 mi South 8.1 mph - N/A   Overcast
9:55 AM 61.5 °F 58.3 °F 89% 29.53 in 10.0 mi South 6.9 mph - N/A   Overcast
10:55 AM 62.2 °F 58.6 °F 88% 29.54 in 10.0 mi Variable 4.6 mph - N/A   Overcast
11:55 AM 62.6 °F 59.7 °F 90% 29.53 in 10.0 mi South 9.2 mph - N/A   Overcast
12:11 PM 62.6 °F 59.0 °F 88% 29.52 in 10.0 mi South 10.4 mph 19.6 mph N/A   Overcast
12:55 PM 69.1 °F 60.4 °F 74% 29.49 in 10.0 mi SSW 11.5 mph 23.0 mph N/A   Mostly Cloudy
1:16 PM 68.0 °F 60.8 °F 78% 29.48 in 10.0 mi South 12.7 mph 20.7 mph N/A   Mostly Cloudy
1:25 PM 68.0 °F 60.8 °F 78% 29.47 in 10.0 mi South 11.5 mph 21.9 mph N/A   Overcast
1:30 PM 68.0 °F 60.8 °F 78% 29.47 in 10.0 mi South 12.7 mph 20.7 mph N/A   Overcast
1:50 PM 68.0 °F 60.8 °F 78% 29.45 in 10.0 mi South 11.5 mph 20.7 mph N/A   Overcast
1:52 PM 68.0 °F 60.8 °F 78% 29.45 in 10.0 mi South 12.7 mph 19.6 mph N/A   Overcast
1:55 PM 69.1 °F 60.4 °F 74% 29.45 in 10.0 mi South 11.5 mph 19.6 mph N/A   Overcast
2:10 PM 69.8 °F 60.8 °F 73% 29.43 in 10.0 mi South 11.5 mph 18.4 mph N/A   Overcast
2:55 PM 67.8 °F 60.1 °F 76% 29.43 in 10.0 mi South 11.5 mph 19.6 mph N/A   Overcast
3:21 PM 66.2 °F 60.8 °F 83% 29.41 in 10.0 mi South 9.2 mph - N/A   Overcast
3:30 PM 66.2 °F 60.8 °F 83% 29.42 in 10.0 mi Variable 5.8 mph - N/A   Light Drizzle
3:48 PM 64.4 °F 62.6 °F 94% 29.46 in 5.0 mi West 16.1 mph 26.5 mph N/A Rain , Thunderstorm Thunderstorms and Rain
3:53 PM 62.6 °F 57.2 °F 82% 29.47 in 0.8 mi NW 20.7 mph 38.0 mph N/A Rain , Thunderstorm Heavy Thunderstorms and Rain
3:55 PM 60.1 °F 56.5 °F 88% 29.44 in 0.8 mi NNW 21.9 mph 38.0 mph 0.33 in Rain , Thunderstorm Heavy Thunderstorms and Rain
4:03 PM 57.2 °F 55.4 °F 94% 29.47 in 1.5 mi NW 11.5 mph 27.6 mph N/A Rain , Thunderstorm Light Thunderstorms and Rain
4:06 PM 57.2 °F 55.4 °F 94% 29.46 in 3.0 mi NW 8.1 mph 27.6 mph N/A Rain Light Rain
4:13 PM 57.2 °F 57.2 °F 100% 29.47 in 10.0 mi WNW 4.6 mph - N/A Thunderstorm Light Drizzle
4:25 PM 57.2 °F 57.2 °F 100% 29.44 in 8.0 mi ENE 4.6 mph - N/A Rain Light Rain
4:42 PM 57.2 °F 57.2 °F 100% 29.46 in 10.0 mi Calm Calm - N/A   Overcast
4:55 PM 57.4 °F 57.4 °F 100% 29.47 in 10.0 mi SW 3.5 mph - 0.13 in   Overcast
5:05 PM 57.2 °F 57.2 °F 100% 29.47 in 10.0 mi West 4.6 mph - N/A   Overcast
5:55 PM 58.3 °F 58.3 °F 100% 29.49 in 10.0 mi West 6.9 mph - N/A   Scattered Clouds
6:05 PM 59.0 °F 59.0 °F 100% 29.49 in 10.0 mi West 5.8 mph - N/A Rain Light Rain
6:22 PM 59.0 °F 59.0 °F 100% 29.51 in 10.0 mi West 8.1 mph - N/A   Overcast
6:34 PM 59.0 °F 59.0 °F 100% 29.52 in 10.0 mi West 8.1 mph - N/A   Light Drizzle
6:39 PM 59.0 °F 57.2 °F 94% 29.53 in 10.0 mi WNW 23.0 mph 32.2 mph N/A   Light Drizzle
6:41 PM 59.0 °F 57.2 °F 94% 29.53 in 10.0 mi WNW 21.9 mph 32.2 mph N/A   Light Drizzle
6:44 PM 57.2 °F 57.2 °F 100% 29.53 in 10.0 mi WNW 18.4 mph 32.2 mph N/A   Overcast
6:55 PM 56.8 °F 55.2 °F 94% 29.53 in 10.0 mi WNW 15.0 mph 25.3 mph 0.00 in   Mostly Cloudy
7:55 PM 53.1 °F 52.5 °F 98% 29.57 in 10.0 mi West 5.8 mph - N/A   Clear
8:55 PM 51.1 °F 51.1 °F 100% 29.60 in 10.0 mi WSW 3.5 mph - N/A   Clear
9:55 PM 52.0 °F 50.4 °F 94% 29.62 in 10.0 mi West 4.6 mph - N/A   Scattered Clouds
10:55 PM 50.2 °F 47.7 °F 91% 29.64 in 10.0 mi WSW 3.5 mph - N/A   Clear
11:55 PM 47.8 °F 46.0 °F 93% 29.65 in 10.0 mi SW 3.5 mph - N/A   Clear